[[{"header":{"parameterUnit":"m.s-1","parameterCategory":2,"la1":30.2991,"la2":30.254,"lo1":-89.0895,"lo2":-89.0444,"dy":0.0017,"dx":0.0017,"nx":28,"ny":28,"refTime":"2025-04-28T21:00:00:Z","depth":"0","parameterNumber":2,"parameterNumberName":"U-component_of_CURRENTS"},"data":[0,0,0,0,0,0,0,0,0,0,0,0,0,0,0,0,0,0,0,0,0,0,0,0,0,0,0,0,0,0,0,0,0,0,0,0,0,0,0,0,0,0,0,0,0,0,0,0,0,0,0,0,0,0,0,0,0,0,0.2099,0.2099,0,0.2069,0.2069,0.2069,0.2034,0.2034,0.2033,0.2033,0.1984,0.1984,0.1983,0,0,0,0,0,0,0,0,0,0,0,0,0,0.2144,0.2143,0.2099,0.2099,0.2099,0.207,0.2069,0.2068,0.2034,0.2034,0.2033,0.2033,0.1985,0.1984,0.1983,0,0,0,0,0,0,0,0,0,0,0,0,0,0.2119,0.2143,0.2099,0.2079,0.2077,0.207,0.2069,0.2068,0.2034,0.2034,0.2033,0.2032,0.1985,0.1984,0.1982,0.1985,0,0,0.1978,0.1977,0,0,0,0,0,0,0,0,0.212,0.2117,0.2082,0.2081,0.2078,0.2056,0.2067,0.204,0.2034,0.2049,0.2033,0.2032,0.2008,0.2005,0.1999,0.1983,0.1981,0.1978,0.1977,0.1977,0.1976,0,0,0,0,0,0,0,0.2122,0.2118,0.2086,0.2082,0.208,0.2078,0.2073,0.2062,0.2031,0.2048,0.2045,0.2045,0.2007,0.2,0.1997,0.198,0.1978,0.1977,0.1976,0.1975,0.1984,0.1985,0,0,0,0,0,0,0.2128,0.212,0.2087,0.2085,0.21,0.2078,0.2072,0.2063,0.2031,0.2026,0.2045,0.2043,0.2003,0.1999,0.1995,0.2006,0.1977,0.1975,0.1974,0.1983,0.1984,0.1985,0,0,0,0,0,0,0.2129,0.2125,0.2088,0.2104,0.2099,0.2077,0.2067,0.2062,0.2055,0.203,0.2024,0.2042,0.2002,0.1997,0.199,0.2003,0.1975,0.1973,0.1982,0.1983,0.1985,0.2021,0,0,0,0,0,0,0.213,0.2126,0.2123,0.2104,0.2098,0.2081,0.2067,0.2062,0.2056,0.2053,0.2025,0.202,0.2001,0.1993,0.1989,0.2001,0.1972,0.198,0.1982,0.1984,0.2019,0.2024,0.2028,0,0,0,0,0,0.2132,0.2128,0.2122,0.2119,0.2094,0.2082,0.2078,0.2061,0.2057,0.2052,0.2041,0.2021,0.2003,0.1992,0.1988,0.1999,0.1979,0.1982,0.1984,0.2017,0.2023,0.2028,0,0,0,0,0,0,0.2145,0.2124,0.2117,0.2106,0.2095,0.2076,0.2074,0.2065,0.2053,0.2053,0.2029,0.2023,0.2025,0.201,0.1999,0.2011,0.199,0.1992,0.2017,0.2023,0.2027,0.2031,0.1971,0,0,0,0,0,0.2148,0.2139,0.2121,0.2114,0.211,0.2095,0.2089,0.2079,0.2066,0.206,0.2042,0.2032,0.2033,0.2025,0.2019,0.2019,0.2033,0.2027,0.2032,0.2036,0.2038,0.2095,0.2106,0.1993,0.1993,0.1993,0,0,0.2152,0.214,0.2135,0.2117,0.2108,0.2102,0.2089,0.2083,0.208,0.2058,0.2049,0.2047,0.2039,0.2042,0.2042,0.2029,0.2074,0.2039,0.2042,0.2042,0.2099,0.211,0.212,0.1995,0.1995,0.1994,0,0,0.2157,0.2145,0.214,0.2132,0.2121,0.2112,0.2112,0.2095,0.2089,0.2088,0.2078,0.2086,0.2073,0.2072,0.2072,0.2101,0.2102,0.21,0.212,0.2176,0.2186,0.2195,0.222,0.2231,0.2098,0.2098,0.2098,0,0.2165,0.215,0.2138,0.2133,0.213,0.2118,0.2116,0.211,0.2093,0.2103,0.2091,0.2109,0.2091,0.2115,0.2118,0.2112,0.2136,0.2096,0.2183,0.2192,0.2201,0.2225,0.2236,0.21,0.21,0.21,0.2099,0,0.2162,0.2154,0.2152,0.2139,0.2138,0.2133,0.2127,0.2127,0.2128,0.2131,0.2158,0.2149,0.2165,0.216,0.2141,0.2191,0.2186,0.2187,0.2168,0.2214,0.2236,0.2248,0.2103,0.2102,0.2102,0.2101,0,0,0.2167,0.2152,0.2151,0.2145,0.2141,0.2135,0.2147,0.2156,0.2173,0.2176,0.2213,0.2211,0.2223,0.2224,0.2215,0.2244,0.2309,0.2235,0.2237,0.226,0.2421,0.2349,0.2354,0.2334,0.2336,0.2338,0.241,0,0.2167,0.2158,0.2154,0.2148,0.2143,0.2147,0.2158,0.2172,0.219,0.2221,0.2245,0.2272,0.2245,0.226,0.2291,0.2311,0.2342,0.2289,0.2373,0.2375,0.2306,0.2366,0.2219,0.2265,0.2421,0.2423,0.2424,0,0.2158,0.2155,0.215,0.2151,0.2151,0.215,0.2178,0.2187,0.2238,0.2261,0.2312,0.2335,0.2381,0.2354,0.2428,0.24,0.2412,0.2421,0.2425,0.2353,0.2325,0.2246,0.228,0.2212,0.2441,0.244,0.2439,0,0.2153,0.2148,0.2144,0.2141,0.2145,0.2153,0.2163,0.2204,0.2228,0.2297,0.2343,0.2403,0.2443,0.2489,0.2501,0.2482,0.2581,0.2562,0.2509,0.2504,0.239,0.237,0.2364,0.2624,0.2623,0.2623,0.2623,0,0.2142,0.2134,0.2138,0.2131,0.2134,0.2149,0.217,0.2195,0.2259,0.2307,0.2367,0.2422,0.2482,0.2541,0.2547,0.2564,0.2629,0.2524,0.2527,0.2396,0.2376,0.2319,0.2292,0.2626,0.2625,0.2625,0.2624,0,0.2119,0.2122,0.2112,0.2122,0.2124,0.2127,0.2162,0.2191,0.2254,0.2329,0.2362,0.2459,0.253,0.2574,0.264,0.2612,0.254,0.2622,0.2444,0.2425,0.2285,0.2264,0.2136,0.2076,0.258,0.2579,0.2578,0,0.21,0.2095,0.2098,0.2101,0.2099,0.2111,0.2129,0.2179,0.222,0.2344,0.2389,0.2485,0.2527,0.2595,0.2559,0.2565,0.2497,0.2438,0.2366,0.2265,0.2247,0.2119,0.2071,0.2231,0.2227,0.2224,0.2222,0,0.2076,0.208,0.2082,0.2085,0.2093,0.2093,0.2126,0.2153,0.2233,0.2296,0.2385,0.2429,0.2476,0.2404,0.24,0.2388,0.2275,0.2373,0.233,0.2022,0.1823,0.1771,0.2184,0.2194,0.2197,0.2199,0.22,0.2201,0.2068,0.2064,0.2078,0.2068,0.2077,0.2072,0.2054,0.2102,0.2141,0.2194,0.2297,0.2295,0.2271,0.2227,0.2206,0.2062,0.2069,0.1975,0.1975,0.1868,0.1747,0.2083,0.2058,0.206,0.2062,0.2063,0.2064,0,0.2063,0.2064,0.2063,0.2045,0.2027,0.2038,0.2051,0.202,0.2024,0.2065,0.2095,0.2038,0.1939,0.1916,0.1783,0.1677,0.1574,0.1631,0.1434,0.1425,0.1782,0.1705,0.1528,0.1528,0.1528,0.1528,0.1528,0.1528,0.207,0.2063,0.2048,0.1997,0.1977,0.1913,0.1895,0.1864,0.1856,0.1784,0.1724,0.172,0.1715,0.1584,0.1442,0.1402,0.1276,0.114,0.1204,0.1475,0.1507,0.1538,0.146,0.1234,0.1234,0.0731,0.0727,0.0725]},{"header":{"parameterUnit":"m.s-1","parameterCategory":2,"la1":30.2991,"la2":30.254,"lo1":-89.0895,"lo2":-89.0444,"dy":0.0017,"dx":0.0017,"nx":28,"ny":28,"refTime":"2025-04-28T21:00:00:Z","depth":"0","parameterNumber":3,"parameterNumberName":"V-component_of_CURRENTS"},"data":[0,0,0,0,0,0,0,0,0,0,0,0,0,0,0,0,0,0,0,0,0,0,0,0,0,0,0,0,0,0,0,0,0,0,0,0,0,0,0,0,0,0,0,0,0,0,0,0,0,0,0,0,0,0,0,0,0,0,0.0403,0.0403,0,0.0392,0.0391,0.0391,0.0377,0.0377,0.0377,0.0377,0.035,0.0349,0.0349,0,0,0,0,0,0,0,0,0,0,0,0,0,0.0369,0.037,0.0403,0.0403,0.0403,0.0392,0.0391,0.0391,0.0377,0.0377,0.0377,0.0377,0.035,0.035,0.0349,0,0,0,0,0,0,0,0,0,0,0,0,0,0.0372,0.037,0.0403,0.0396,0.0395,0.0392,0.0391,0.0391,0.0377,0.0377,0.0377,0.0377,0.0351,0.035,0.0349,0.0345,0,0,0.0346,0.0345,0,0,0,0,0,0,0,0,0.0372,0.0373,0.0397,0.0396,0.0395,0.0387,0.037,0.0375,0.0377,0.0382,0.0377,0.0377,0.0362,0.036,0.0356,0.0344,0.0343,0.0346,0.0345,0.0345,0.0344,0,0,0,0,0,0,0,0.0372,0.0373,0.0397,0.0397,0.0396,0.0379,0.0379,0.037,0.0371,0.0382,0.0381,0.0383,0.0361,0.0357,0.0356,0.0342,0.0346,0.0345,0.0344,0.0344,0.0325,0.0325,0,0,0,0,0,0,0.0379,0.0374,0.0397,0.0396,0.0385,0.038,0.038,0.0389,0.0372,0.037,0.0383,0.0382,0.0359,0.0357,0.0355,0.0359,0.0345,0.0344,0.0343,0.0325,0.0325,0.0325,0,0,0,0,0,0,0.0379,0.0382,0.0397,0.0385,0.0386,0.0381,0.039,0.0388,0.0387,0.0373,0.037,0.0383,0.0359,0.0356,0.0352,0.0358,0.0343,0.0342,0.0325,0.0325,0.0325,0.0362,0,0,0,0,0,0,0.0378,0.0382,0.0387,0.0386,0.0387,0.04,0.039,0.0388,0.0388,0.0387,0.0372,0.037,0.0359,0.0354,0.0351,0.0356,0.0342,0.0324,0.0325,0.0325,0.0361,0.0364,0.0366,0,0,0,0,0,0.0377,0.0388,0.0387,0.039,0.0397,0.0401,0.04,0.0393,0.0389,0.0391,0.0381,0.037,0.0352,0.0353,0.035,0.0355,0.0324,0.0325,0.0325,0.036,0.0363,0.0366,0,0,0,0,0,0,0.0372,0.0387,0.0387,0.0401,0.0403,0.0399,0.0401,0.0396,0.039,0.0389,0.0374,0.0371,0.0368,0.0356,0.0357,0.0349,0.0335,0.0335,0.0363,0.0366,0.0368,0.0382,0.0341,0,0,0,0,0,0.0376,0.039,0.0396,0.0406,0.0409,0.0405,0.0405,0.0402,0.0398,0.0395,0.0385,0.0373,0.0366,0.0362,0.0352,0.035,0.0342,0.0349,0.0352,0.0354,0.0362,0.036,0.0364,0.0325,0.0325,0.0325,0,0,0.0376,0.0386,0.0393,0.0406,0.0407,0.0417,0.0405,0.0409,0.0417,0.0393,0.0398,0.0383,0.0367,0.0365,0.0363,0.0356,0.0358,0.0354,0.0356,0.0363,0.0361,0.0365,0.0368,0.0325,0.0325,0.0325,0,0,0.0387,0.0395,0.0412,0.0418,0.0425,0.0424,0.0428,0.0427,0.0427,0.0429,0.0413,0.0405,0.0393,0.0384,0.0378,0.0388,0.0372,0.038,0.0405,0.0403,0.0406,0.0409,0.0397,0.0399,0.0381,0.0381,0.0381,0,0.0385,0.0412,0.0414,0.0432,0.0442,0.0431,0.045,0.0447,0.0444,0.0451,0.0436,0.0426,0.0404,0.0412,0.0408,0.0396,0.0388,0.0397,0.0408,0.041,0.0413,0.04,0.0401,0.0383,0.0383,0.0383,0.0382,0,0.0412,0.0431,0.0442,0.0465,0.0473,0.0486,0.0489,0.0493,0.0489,0.0488,0.0494,0.0468,0.0466,0.045,0.0429,0.0436,0.0422,0.0412,0.0404,0.0419,0.0404,0.0405,0.0386,0.0385,0.0384,0.0384,0,0,0.0415,0.0455,0.0459,0.0483,0.0495,0.051,0.0522,0.054,0.0564,0.0545,0.0577,0.054,0.0528,0.052,0.0493,0.048,0.0476,0.0452,0.0451,0.0446,0.0466,0.0446,0.0444,0.047,0.047,0.0471,0.0446,0,0.0437,0.0486,0.0494,0.0537,0.0564,0.0564,0.0586,0.0596,0.0601,0.0626,0.0601,0.0617,0.0556,0.0563,0.0537,0.0501,0.0481,0.0483,0.0446,0.0445,0.0431,0.0446,0.0482,0.0463,0.0447,0.0447,0.0447,0,0.0463,0.0497,0.0545,0.0596,0.0608,0.0626,0.067,0.069,0.0711,0.0718,0.0719,0.0706,0.0689,0.064,0.0578,0.0583,0.0525,0.0486,0.0484,0.0456,0.0427,0.0445,0.0465,0.0451,0.0448,0.0448,0.0448,0,0.0484,0.0534,0.0579,0.0595,0.0643,0.0666,0.0691,0.0717,0.0758,0.0786,0.0825,0.079,0.0797,0.0723,0.0626,0.0609,0.0559,0.0531,0.0455,0.0453,0.0472,0.047,0.0482,0.0487,0.0487,0.0487,0.0487,0,0.0512,0.0549,0.0595,0.0623,0.0686,0.0704,0.077,0.079,0.0843,0.0914,0.088,0.0927,0.0818,0.0777,0.0669,0.0568,0.0592,0.0466,0.045,0.0483,0.0483,0.0461,0.043,0.0486,0.0486,0.0486,0.0487,0,0.0529,0.0558,0.0617,0.0676,0.0699,0.0745,0.0829,0.0886,0.0924,0.102,0.1042,0.1037,0.0983,0.0862,0.0747,0.0638,0.0517,0.049,0.0528,0.0517,0.0426,0.0394,0.0362,0.0333,0.0411,0.041,0.041,0,0.0545,0.0577,0.0656,0.0701,0.073,0.0802,0.0863,0.092,0.0994,0.1095,0.1156,0.1136,0.1134,0.0952,0.0765,0.0587,0.0517,0.0487,0.0454,0.0434,0.0388,0.0368,0.0344,0.049,0.049,0.0491,0.0491,0,0.0578,0.0603,0.0657,0.0744,0.0814,0.0898,0.0991,0.1062,0.1154,0.1244,0.134,0.1348,0.1191,0.1038,0.0785,0.0649,0.0485,0.0483,0.0467,0.0455,0.0432,0.0393,0.0482,0.0492,0.0492,0.0492,0.0492,0.0492,0.0604,0.0644,0.0714,0.0796,0.0879,0.0984,0.1059,0.1177,0.1307,0.1443,0.1452,0.1476,0.1281,0.0949,0.078,0.0526,0.049,0.0449,0.0412,0.0394,0.0371,0.0452,0.044,0.0439,0.0439,0.0439,0.0438,0,0.0639,0.0687,0.0764,0.0864,0.095,0.099,0.1141,0.1228,0.1386,0.1501,0.1576,0.1498,0.127,0.1008,0.0682,0.0512,0.0435,0.0415,0.0418,0.0393,0.0485,0.0495,0.0491,0.0491,0.0491,0.0491,0.0491,0.0491,0.0662,0.0732,0.0766,0.0899,0.097,0.1087,0.117,0.1317,0.1423,0.1555,0.1579,0.1575,0.1438,0.0934,0.0619,0.0511,0.0404,0.0362,0.0294,0.039,0.0392,0.0394,0.0399,0.0375,0.0375,0.0247,0.0246,0.0245]}],[{"header":{"parameterUnit":"m.s-1","parameterCategory":2,"la1":30.2991,"la2":30.254,"lo1":-89.0895,"lo2":-89.0444,"dy":0.0017,"dx":0.0017,"nx":28,"ny":28,"refTime":"2025-04-28T21:00:00:Z","depth":"2","parameterNumber":2,"parameterNumberName":"U-component_of_CURRENTS"},"data":[0,0,0,0,0,0,0,0,0,0,0,0,0,0,0,0,0,0,0,0,0,0,0,0,0,0,0,0,0,0,0,0,0,0,0,0,0,0,0,0,0,0,0,0,0,0,0,0,0,0,0,0,0,0,0,0,0,0,0.1948,0.1948,0,0.1936,0.1936,0.1936,0.1917,0.1917,0.1917,0.1916,0.189,0.1889,0.1889,0,0,0,0,0,0,0,0,0,0,0,0,0,0.1972,0.1971,0.1948,0.1948,0.1948,0.1936,0.1936,0.1935,0.1917,0.1917,0.1917,0.1916,0.189,0.1889,0.1889,0,0,0,0,0,0,0,0,0,0,0,0,0,0.1959,0.1971,0.1948,0.1939,0.1938,0.1936,0.1936,0.1935,0.1917,0.1917,0.1917,0.1916,0.189,0.1889,0.1889,0.1889,0,0,0.1886,0.1886,0,0,0,0,0,0,0,0,0.196,0.1958,0.194,0.1939,0.1938,0.1929,0.1934,0.192,0.1917,0.1923,0.1916,0.1916,0.1903,0.1901,0.1897,0.1888,0.1887,0.1886,0.1886,0.1885,0.1885,0,0,0,0,0,0,0,0.1961,0.1959,0.1942,0.194,0.1939,0.1941,0.1938,0.1931,0.1913,0.1923,0.1922,0.1923,0.1902,0.1898,0.1897,0.1886,0.1886,0.1885,0.1885,0.1885,0.1906,0.1907,0,0,0,0,0,0,0.1965,0.1959,0.1942,0.1942,0.195,0.1941,0.1938,0.1931,0.1914,0.1911,0.1923,0.1922,0.19,0.1897,0.1896,0.1916,0.1885,0.1884,0.1884,0.1905,0.1906,0.1907,0,0,0,0,0,0,0.1965,0.1963,0.1943,0.1952,0.195,0.194,0.1933,0.1931,0.1932,0.1914,0.1911,0.1927,0.1899,0.1897,0.1898,0.1914,0.1884,0.1883,0.1904,0.1905,0.1907,0.1943,0,0,0,0,0,0,0.1966,0.1963,0.1964,0.1952,0.1949,0.1943,0.1934,0.1931,0.1934,0.1933,0.1917,0.1914,0.1899,0.19,0.1897,0.1912,0.1883,0.1902,0.1904,0.1906,0.194,0.1945,0.195,0,0,0,0,0,0.1966,0.1965,0.1964,0.1962,0.1949,0.1943,0.1941,0.1933,0.1935,0.1934,0.193,0.1915,0.1911,0.19,0.1897,0.1912,0.1901,0.1904,0.1906,0.1938,0.1944,0.195,0,0,0,0,0,0,0.1975,0.1963,0.1961,0.1956,0.1952,0.194,0.1943,0.194,0.1937,0.194,0.1923,0.192,0.193,0.1918,0.1906,0.1926,0.1906,0.1908,0.1931,0.1937,0.1941,0.1944,0.1882,0,0,0,0,0,0.1979,0.1974,0.1965,0.1963,0.1963,0.1957,0.1956,0.1952,0.1947,0.1945,0.1935,0.1933,0.1937,0.1934,0.1932,0.1938,0.1949,0.1949,0.1953,0.1957,0.1959,0.2009,0.2019,0.1915,0.1915,0.1915,0,0,0.1983,0.1977,0.1974,0.1966,0.1963,0.1962,0.1955,0.1957,0.196,0.1944,0.1946,0.1948,0.1944,0.1953,0.1956,0.1944,0.1992,0.196,0.1964,0.1963,0.2013,0.2023,0.2032,0.1917,0.1916,0.1916,0,0,0.1988,0.1984,0.1982,0.198,0.198,0.1975,0.1978,0.1971,0.1972,0.198,0.1974,0.1987,0.1983,0.1985,0.1986,0.2017,0.2018,0.2019,0.204,0.2089,0.2098,0.2106,0.2128,0.2137,0.2018,0.2018,0.2018,0,0.1996,0.1987,0.1982,0.1982,0.1985,0.1982,0.1985,0.1985,0.198,0.1993,0.1986,0.2013,0.2001,0.2026,0.2032,0.2028,0.2049,0.2017,0.2096,0.2104,0.2111,0.2132,0.2142,0.202,0.202,0.202,0.202,0,0.1995,0.1994,0.1995,0.1992,0.1996,0.1998,0.1999,0.2007,0.2016,0.2023,0.2055,0.2052,0.2071,0.207,0.2056,0.2104,0.2099,0.2099,0.2081,0.2124,0.2143,0.2153,0.2023,0.2023,0.2022,0.2021,0,0,0.1997,0.1994,0.1996,0.1996,0.2002,0.2002,0.202,0.2035,0.2056,0.2068,0.2106,0.2112,0.2126,0.2129,0.2123,0.2152,0.2213,0.2146,0.2148,0.2166,0.2311,0.224,0.2244,0.2235,0.2237,0.2239,0.23,0,0.1999,0.1998,0.2,0.2005,0.2005,0.2017,0.2032,0.2053,0.2076,0.211,0.2137,0.2167,0.2145,0.2163,0.2193,0.2214,0.2242,0.2195,0.2267,0.2269,0.22,0.2254,0.2036,0.2068,0.231,0.2312,0.2313,0,0.1992,0.1994,0.1999,0.201,0.2013,0.2021,0.2056,0.207,0.2124,0.215,0.2199,0.2222,0.2268,0.2247,0.2316,0.2291,0.2304,0.2313,0.2317,0.2244,0.2217,0.2065,0.2077,0.233,0.2328,0.2327,0.2326,0,0.1983,0.199,0.1994,0.1996,0.2012,0.2027,0.2043,0.2088,0.2114,0.2185,0.2228,0.2285,0.2325,0.2366,0.2382,0.2365,0.2454,0.2438,0.2383,0.2377,0.22,0.2175,0.2492,0.2491,0.2491,0.2491,0.2491,0,0.1972,0.1974,0.199,0.1989,0.2002,0.2025,0.2054,0.2083,0.2147,0.2192,0.2251,0.2298,0.2361,0.2414,0.2421,0.2433,0.2495,0.2396,0.2397,0.2205,0.2181,0.2412,0.2402,0.2493,0.2493,0.2493,0.2492,0,0.195,0.1961,0.1962,0.1985,0.1993,0.2005,0.205,0.2077,0.2144,0.2212,0.2244,0.2332,0.2397,0.2442,0.2504,0.2475,0.2496,0.248,0.2235,0.2206,0.2375,0.2366,0.2436,0.2434,0.2433,0.2432,0.2431,0,0.1933,0.1934,0.1953,0.1958,0.1967,0.199,0.201,0.2067,0.21,0.2221,0.2252,0.2348,0.2379,0.2441,0.2405,0.241,0.2477,0.2214,0.2137,0.2379,0.2374,0.2367,0.2361,0.1916,0.191,0.1906,0.1903,0,0.1908,0.1919,0.1926,0.1935,0.195,0.1961,0.1996,0.2013,0.2093,0.2143,0.2206,0.2246,0.2299,0.219,0.22,0.2174,0.2196,0.2128,0.2466,0.1962,0.1893,0.1886,0.1896,0.1865,0.1869,0.1871,0.1873,0.1875,0.1897,0.1894,0.1908,0.1903,0.1922,0.192,0.19,0.1937,0.1958,0.1993,0.2087,0.2064,0.207,0.196,0.1891,0.1832,0.1991,0.1892,0.1904,0.192,0.1847,0.178,0.1715,0.1718,0.172,0.1723,0.1724,0,0.1872,0.1874,0.1875,0.1865,0.1848,0.1877,0.1878,0.1831,0.1803,0.1844,0.1857,0.169,0.1603,0.1617,0.1448,0.1436,0.1407,0.1387,0.1324,0.1363,0.1397,0.1296,0.1018,0.1016,0.1014,0.1013,0,0,0.1865,0.1846,0.1829,0.178,0.1777,0.1726,0.1701,0.1633,0.1612,0.1532,0.1482,0.1574,0.1586,0.1304,0.1244,0.1101,0.1231,0.1056,0.1622,0.1588,0.162,0.1686,0.1574,0,0,0,0,0]},{"header":{"parameterUnit":"m.s-1","parameterCategory":2,"la1":30.2991,"la2":30.254,"lo1":-89.0895,"lo2":-89.0444,"dy":0.0017,"dx":0.0017,"nx":28,"ny":28,"refTime":"2025-04-28T21:00:00:Z","depth":"2","parameterNumber":3,"parameterNumberName":"V-component_of_CURRENTS"},"data":[0,0,0,0,0,0,0,0,0,0,0,0,0,0,0,0,0,0,0,0,0,0,0,0,0,0,0,0,0,0,0,0,0,0,0,0,0,0,0,0,0,0,0,0,0,0,0,0,0,0,0,0,0,0,0,0,0,0,0.0258,0.0258,0,0.0251,0.0251,0.0251,0.0243,0.0243,0.0243,0.0243,0.0222,0.0222,0.0221,0,0,0,0,0,0,0,0,0,0,0,0,0,0.0225,0.0226,0.0258,0.0258,0.0258,0.0251,0.0251,0.0251,0.0243,0.0243,0.0243,0.0243,0.0223,0.0222,0.0221,0,0,0,0,0,0,0,0,0,0,0,0,0,0.023,0.0226,0.0258,0.0255,0.0254,0.0251,0.0251,0.0251,0.0243,0.0243,0.0243,0.0243,0.0223,0.0222,0.0221,0.0215,0,0,0.0218,0.0218,0,0,0,0,0,0,0,0,0.0229,0.0231,0.0255,0.0255,0.0255,0.0249,0.0232,0.0239,0.0243,0.0246,0.0243,0.0243,0.0231,0.0229,0.0226,0.0214,0.0213,0.0218,0.0218,0.0217,0.0217,0,0,0,0,0,0,0,0.0229,0.0231,0.0254,0.0255,0.0255,0.024,0.0241,0.0233,0.0237,0.0246,0.0245,0.0247,0.0231,0.0227,0.0226,0.0213,0.0218,0.0218,0.0217,0.0217,0.0201,0.0201,0,0,0,0,0,0,0.0235,0.0231,0.0254,0.0254,0.0243,0.0241,0.0242,0.025,0.0237,0.0236,0.0247,0.0247,0.0229,0.0227,0.0225,0.0233,0.0217,0.0217,0.0216,0.0201,0.0201,0.0201,0,0,0,0,0,0,0.0235,0.0238,0.0255,0.0243,0.0244,0.0242,0.0251,0.025,0.0251,0.0239,0.0237,0.025,0.0228,0.0226,0.0224,0.0232,0.0216,0.0215,0.0201,0.0201,0.0201,0.024,0,0,0,0,0,0,0.0234,0.0238,0.0243,0.0244,0.0245,0.0259,0.0251,0.025,0.0252,0.0252,0.024,0.0238,0.0228,0.0226,0.0223,0.023,0.0215,0.0201,0.0201,0.0201,0.0238,0.0241,0.0244,0,0,0,0,0,0.0233,0.0242,0.0243,0.0246,0.0254,0.0259,0.0258,0.0255,0.0252,0.0255,0.0248,0.0239,0.0225,0.0225,0.0222,0.0229,0.0201,0.0201,0.0201,0.0237,0.0241,0.0244,0,0,0,0,0,0,0.0227,0.0243,0.0244,0.0257,0.026,0.0258,0.0261,0.0259,0.0255,0.0255,0.0242,0.024,0.024,0.0228,0.0228,0.0224,0.021,0.021,0.0239,0.0242,0.0244,0.0256,0.0214,0,0,0,0,0,0.023,0.0244,0.0251,0.0261,0.0265,0.0264,0.0264,0.0264,0.0262,0.026,0.0253,0.0243,0.0237,0.0235,0.0226,0.0226,0.0214,0.0227,0.023,0.0232,0.0239,0.023,0.0233,0.0202,0.0202,0.0202,0,0,0.0229,0.024,0.0247,0.0261,0.0263,0.0275,0.0264,0.027,0.028,0.0258,0.0267,0.0253,0.0239,0.0239,0.0238,0.0232,0.0233,0.0232,0.0235,0.024,0.0231,0.0234,0.0237,0.0202,0.0202,0.0202,0,0,0.0239,0.0247,0.0263,0.0271,0.0281,0.0282,0.0287,0.0289,0.0291,0.0296,0.0282,0.0276,0.0267,0.0259,0.0254,0.0266,0.0247,0.0259,0.0284,0.0275,0.0278,0.028,0.0264,0.0265,0.0261,0.0261,0.0261,0,0.0237,0.0262,0.0266,0.0284,0.0295,0.029,0.0308,0.0309,0.0309,0.0315,0.0304,0.0296,0.0278,0.0285,0.0284,0.0273,0.0262,0.0275,0.028,0.0282,0.0284,0.0266,0.0267,0.0263,0.0263,0.0263,0.0262,0,0.0261,0.0281,0.0291,0.0317,0.0326,0.034,0.0347,0.0353,0.0353,0.0353,0.0359,0.0337,0.0334,0.0323,0.0306,0.031,0.0295,0.0285,0.0275,0.0289,0.027,0.0269,0.0266,0.0265,0.0264,0.0264,0,0,0.0262,0.0301,0.0306,0.0329,0.0347,0.0361,0.0378,0.0396,0.0417,0.0405,0.0431,0.0404,0.0392,0.0385,0.0362,0.0348,0.034,0.0322,0.0321,0.0311,0.0316,0.0302,0.0299,0.0331,0.0332,0.0332,0.0296,0,0.0282,0.0327,0.0339,0.0381,0.0407,0.0412,0.0434,0.0447,0.0452,0.0473,0.0452,0.0465,0.0417,0.0422,0.0398,0.0362,0.0341,0.035,0.0299,0.0297,0.0288,0.0299,0.0311,0.028,0.0296,0.0295,0.0295,0,0.0305,0.0337,0.0383,0.0431,0.0444,0.0465,0.0506,0.0527,0.0545,0.0551,0.0551,0.0538,0.0522,0.0481,0.042,0.0429,0.0374,0.0337,0.0335,0.0309,0.0282,0.0269,0.0278,0.0294,0.0294,0.0294,0.0294,0,0.0319,0.0369,0.0412,0.0427,0.0475,0.0499,0.0525,0.055,0.0585,0.0608,0.0638,0.0605,0.061,0.0539,0.0452,0.044,0.0383,0.0359,0.0291,0.0289,0.0284,0.0281,0.0313,0.0313,0.0313,0.0313,0.0313,0,0.0343,0.0378,0.0425,0.0451,0.0509,0.053,0.0591,0.061,0.0655,0.0714,0.0684,0.0718,0.0625,0.0581,0.0484,0.039,0.0406,0.03,0.0283,0.0296,0.0295,0.0295,0.0293,0.0312,0.0312,0.0312,0.0313,0,0.0355,0.0384,0.0439,0.0496,0.052,0.0563,0.0642,0.0689,0.0724,0.0803,0.0821,0.081,0.0759,0.0653,0.0544,0.0444,0.0348,0.0306,0.0322,0.0308,0.0248,0.0249,0.0232,0.0232,0.0231,0.0231,0.023,0,0.0367,0.0397,0.0472,0.0513,0.0543,0.0611,0.0666,0.072,0.0777,0.0862,0.0906,0.0889,0.0882,0.0713,0.0551,0.0391,0.0354,0.0275,0.025,0.0257,0.0242,0.0244,0.0245,0.0253,0.0253,0.0253,0.0252,0,0.0391,0.0416,0.0465,0.0545,0.0609,0.0688,0.077,0.0825,0.0906,0.0972,0.1042,0.1047,0.0918,0.0766,0.0549,0.0428,0.0301,0.0266,0.028,0.0273,0.0274,0.026,0.0261,0.0251,0.0251,0.0251,0.0251,0.0251,0.0411,0.0445,0.0507,0.0581,0.0659,0.0754,0.0819,0.0913,0.1012,0.1117,0.1122,0.1125,0.0972,0.0695,0.0508,0.0301,0.0316,0.0218,0.0219,0.0221,0.0231,0.0231,0.0201,0.0201,0.0201,0.0201,0.0201,0,0.0433,0.0473,0.054,0.0633,0.071,0.0756,0.0882,0.0948,0.1063,0.1156,0.1212,0.104,0.0895,0.0701,0.0417,0.0247,0.0225,0.0162,0.0183,0.0186,0.0189,0.0197,0.0159,0.0158,0.0157,0.0157,0,0,0.0447,0.0504,0.0532,0.065,0.0721,0.0831,0.0902,0.1001,0.108,0.1151,0.1157,0.1174,0.0952,0.0727,0.0507,0.0338,0.029,0.0286,0.0341,0.0396,0.0401,0.0244,0.0264,0,0,0,0,0]}],[{"header":{"parameterUnit":"m.s-1","parameterCategory":2,"la1":30.2991,"la2":30.254,"lo1":-89.0895,"lo2":-89.0444,"dy":0.0017,"dx":0.0017,"nx":28,"ny":28,"refTime":"2025-04-28T21:00:00:Z","depth":"4","parameterNumber":2,"parameterNumberName":"U-component_of_CURRENTS"},"data":[0,0,0,0,0,0,0,0,0,0,0,0,0,0,0,0,0,0,0,0,0,0,0,0,0,0,0,0,0,0,0,0,0,0,0,0,0,0,0,0,0,0,0,0,0,0,0,0,0,0,0,0,0,0,0,0,0,0,0.1212,0.1212,0,0.1252,0.1252,0.1253,0.1287,0.1287,0.1288,0.1288,0.1336,0.1337,0.1338,0,0,0,0,0,0,0,0,0,0,0,0,0,0.118,0.118,0.1212,0.1212,0.1213,0.1252,0.1252,0.1253,0.1287,0.1287,0.1288,0.1289,0.1336,0.1337,0.1338,0,0,0,0,0,0,0,0,0,0,0,0,0,0.1203,0.118,0.1212,0.1236,0.1239,0.1252,0.1252,0.1253,0.1287,0.1287,0.1288,0.1289,0.1335,0.1337,0.1338,0.1329,0,0,0.1341,0.1342,0,0,0,0,0,0,0,0,0.1201,0.1203,0.1232,0.1234,0.1237,0.1267,0.1259,0.1279,0.1287,0.1267,0.1288,0.1289,0.1314,0.1317,0.132,0.1332,0.1334,0.1341,0.1342,0.1343,0.1343,0,0,0,0,0,0,0,0.12,0.1202,0.1226,0.1232,0.1236,0.125,0.1254,0.1263,0.1284,0.1269,0.1272,0.1278,0.1315,0.1319,0.1322,0.1334,0.1341,0.1342,0.1343,0.1344,0.142,0.1421,0,0,0,0,0,0,0.1196,0.12,0.1225,0.1228,0.1222,0.125,0.1254,0.1255,0.1284,0.129,0.1277,0.128,0.1317,0.132,0.1324,0.1384,0.1343,0.1344,0.1344,0.1419,0.142,0.1422,0,0,0,0,0,0,0.1195,0.1197,0.1223,0.1217,0.1221,0.125,0.1251,0.1256,0.1286,0.1291,0.1297,0.1306,0.1318,0.1322,0.1356,0.1384,0.1344,0.1345,0.1417,0.1419,0.1421,0.1461,0,0,0,0,0,0,0.1194,0.1197,0.121,0.1216,0.1221,0.1245,0.125,0.1256,0.1288,0.1292,0.1317,0.1321,0.1319,0.1354,0.1357,0.1385,0.1346,0.1415,0.1418,0.142,0.1458,0.1465,0.147,0,0,0,0,0,0.1192,0.1199,0.121,0.1214,0.1233,0.1246,0.125,0.1272,0.1289,0.1303,0.1326,0.1322,0.1372,0.1356,0.1359,0.1388,0.1414,0.1417,0.142,0.1456,0.1463,0.147,0,0,0,0,0,0,0.1194,0.1204,0.1215,0.1227,0.1244,0.1253,0.1272,0.1287,0.1315,0.133,0.1335,0.134,0.1381,0.1379,0.1362,0.1418,0.1394,0.1398,0.142,0.1427,0.1433,0.143,0.1347,0,0,0,0,0,0.12,0.121,0.1221,0.1235,0.1245,0.1265,0.128,0.1295,0.1315,0.133,0.1347,0.137,0.1391,0.1406,0.142,0.1448,0.1451,0.147,0.1476,0.1481,0.1482,0.1518,0.1526,0.1431,0.1431,0.1431,0,0,0.1205,0.1213,0.122,0.1237,0.1254,0.127,0.1277,0.1305,0.1326,0.1329,0.1373,0.1391,0.1403,0.1437,0.1455,0.1442,0.1509,0.1485,0.1489,0.1487,0.1522,0.1531,0.1539,0.1433,0.1433,0.1433,0,0,0.1211,0.123,0.1238,0.1254,0.1284,0.1293,0.1308,0.1332,0.1355,0.1394,0.1405,0.1441,0.1472,0.1484,0.1494,0.154,0.1539,0.1552,0.1579,0.1614,0.1622,0.1629,0.164,0.1648,0.1554,0.1554,0.1555,0,0.1224,0.123,0.1245,0.126,0.1279,0.1306,0.1324,0.1347,0.1383,0.1408,0.1417,0.1483,0.1494,0.1532,0.155,0.1553,0.1567,0.155,0.1621,0.1628,0.1634,0.1644,0.1652,0.1557,0.1556,0.1556,0.1556,0,0.1226,0.1247,0.1256,0.1282,0.1304,0.1326,0.1355,0.139,0.1427,0.1451,0.1512,0.1532,0.1571,0.1583,0.1582,0.1635,0.1627,0.1624,0.1601,0.1646,0.1654,0.1662,0.156,0.1559,0.1559,0.1558,0,0,0.1216,0.1251,0.1259,0.1276,0.132,0.1334,0.1381,0.1423,0.1462,0.151,0.156,0.1603,0.1627,0.1639,0.1648,0.1676,0.1731,0.1674,0.1675,0.1681,0.1801,0.1673,0.1669,0.1747,0.1749,0.175,0.1787,0,0.1219,0.1242,0.1264,0.1301,0.1316,0.1362,0.1398,0.1447,0.1497,0.1551,0.1594,0.1645,0.1644,0.1674,0.1705,0.1731,0.1754,0.1721,0.176,0.1761,0.1638,0.1674,0.1756,0.1792,0.1794,0.1795,0.1796,0,0.1211,0.1229,0.126,0.1309,0.1323,0.1355,0.1427,0.1465,0.1545,0.1588,0.1652,0.1687,0.1746,0.1736,0.1804,0.1788,0.1799,0.1809,0.1811,0.168,0.1647,0.174,0.1809,0.1808,0.1807,0.1807,0.1806,0,0.118,0.1226,0.1252,0.1269,0.1328,0.1366,0.1409,0.1486,0.1528,0.1622,0.1669,0.1738,0.1787,0.1823,0.1851,0.1842,0.1912,0.1899,0.1788,0.1779,0.1866,0.1858,0.1939,0.1939,0.1938,0.1938,0.1938,0,0.1157,0.1183,0.1245,0.1258,0.1304,0.1357,0.1419,0.1474,0.1559,0.1607,0.1691,0.1732,0.1817,0.1864,0.1875,0.1851,0.1935,0.1792,0.1782,0.1881,0.1874,0.187,0.1862,0.194,0.1939,0.1939,0.1939,0,0.1117,0.1155,0.1191,0.1262,0.1289,0.1328,0.142,0.1457,0.155,0.1619,0.1655,0.1756,0.1812,0.1867,0.1924,0.1867,0.1864,0.1832,0.1931,0.1925,0.17,0.1694,0.1708,0.1704,0.17,0.1697,0.1695,0,0.1093,0.1108,0.1188,0.1214,0.1253,0.1317,0.1355,0.1446,0.1483,0.161,0.1629,0.1728,0.1779,0.1754,0.1821,0.1825,0.1802,0.1779,0.1735,0.1689,0.1679,0.1678,0.1676,0.1689,0.1688,0.1687,0.1686,0,0.1054,0.1096,0.1127,0.1176,0.1222,0.1257,0.132,0.1334,0.1432,0.1535,0.1559,0.1585,0.1641,0.1672,0.169,0.1689,0.1783,0.1742,0.1748,0.1707,0.1667,0.1659,0.1662,0.1674,0.1676,0.1677,0.1678,0,0.1037,0.1046,0.109,0.1124,0.1175,0.1174,0.1215,0.1244,0.1286,0.1419,0.1424,0.1524,0.1621,0.1602,0.1619,0.1609,0.158,0.1513,0.1531,0.1545,0.1474,0.1399,0.1314,0,0,0,0,0,0.1008,0.1002,0.1031,0.1046,0.1091,0.1113,0.1177,0.1217,0.1312,0.1289,0.1348,0.1388,0.1411,0.1463,0.1421,0.155,0.159,0.1492,0.1523,0.1606,0.162,0.1551,0,0,0,0,0,0,0.0984,0.1007,0.1002,0.0972,0.097,0.0993,0.1027,0.109,0.1077,0.1189,0.1211,0.1295,0.1345,0.1425,0.1394,0.1409,0.1394,0.1557,0.1552,0.1598,0.1611,0.1622,0.1556,0,0,0,0,0]},{"header":{"parameterUnit":"m.s-1","parameterCategory":2,"la1":30.2991,"la2":30.254,"lo1":-89.0895,"lo2":-89.0444,"dy":0.0017,"dx":0.0017,"nx":28,"ny":28,"refTime":"2025-04-28T21:00:00:Z","depth":"4","parameterNumber":3,"parameterNumberName":"V-component_of_CURRENTS"},"data":[0,0,0,0,0,0,0,0,0,0,0,0,0,0,0,0,0,0,0,0,0,0,0,0,0,0,0,0,0,0,0,0,0,0,0,0,0,0,0,0,0,0,0,0,0,0,0,0,0,0,0,0,0,0,0,0,0,0,0.0148,0.0148,0,0.0145,0.0145,0.0145,0.0143,0.0143,0.0143,0.0143,0.0131,0.0131,0.013,0,0,0,0,0,0,0,0,0,0,0,0,0,0.0125,0.0125,0.0148,0.0148,0.0148,0.0145,0.0145,0.0145,0.0143,0.0143,0.0143,0.0143,0.0131,0.0131,0.013,0,0,0,0,0,0,0,0,0,0,0,0,0,0.0129,0.0126,0.0148,0.0147,0.0147,0.0145,0.0145,0.0144,0.0143,0.0143,0.0143,0.0143,0.0131,0.0131,0.013,0.0125,0,0,0.0129,0.0128,0,0,0,0,0,0,0,0,0.0129,0.013,0.0147,0.0147,0.0147,0.0145,0.0132,0.0138,0.0143,0.0144,0.0143,0.0143,0.0135,0.0135,0.0133,0.0125,0.0124,0.0129,0.0128,0.0128,0.0128,0,0,0,0,0,0,0,0.0128,0.013,0.0146,0.0147,0.0147,0.0138,0.0139,0.0133,0.0138,0.0143,0.0144,0.0144,0.0135,0.0133,0.0132,0.0124,0.0129,0.0128,0.0128,0.0128,0.0121,0.0121,0,0,0,0,0,0,0.0132,0.013,0.0146,0.0146,0.0139,0.0138,0.0139,0.0145,0.0138,0.0138,0.0144,0.0144,0.0134,0.0133,0.0132,0.0144,0.0128,0.0128,0.0127,0.0121,0.0121,0.0122,0,0,0,0,0,0,0.0131,0.0134,0.0146,0.0138,0.0139,0.0139,0.0145,0.0145,0.0147,0.0139,0.0138,0.0148,0.0134,0.0133,0.0133,0.0143,0.0127,0.0127,0.0121,0.0121,0.0121,0.0157,0,0,0,0,0,0,0.0131,0.0134,0.0138,0.0138,0.014,0.015,0.0145,0.0145,0.0148,0.0148,0.0142,0.0141,0.0134,0.0134,0.0133,0.0142,0.0126,0.0121,0.0121,0.0121,0.0155,0.0158,0.016,0,0,0,0,0,0.013,0.0137,0.0138,0.014,0.0146,0.0151,0.015,0.015,0.0148,0.0152,0.0148,0.0141,0.0135,0.0134,0.0132,0.0142,0.0121,0.0121,0.0121,0.0154,0.0157,0.016,0,0,0,0,0,0,0.0127,0.0138,0.0139,0.0148,0.0152,0.0151,0.0153,0.0153,0.0152,0.0152,0.0144,0.0143,0.0146,0.0137,0.0136,0.014,0.0126,0.0126,0.0152,0.0155,0.0157,0.0164,0.0126,0,0,0,0,0,0.0129,0.0139,0.0144,0.0151,0.0155,0.0155,0.0156,0.0156,0.0156,0.0156,0.0153,0.0148,0.0145,0.0145,0.014,0.0142,0.0126,0.0146,0.0149,0.0151,0.0155,0.0139,0.0141,0.0123,0.0123,0.0123,0,0,0.0128,0.0136,0.0141,0.0152,0.0154,0.0165,0.0156,0.0161,0.0172,0.0155,0.0166,0.0157,0.0147,0.0152,0.0152,0.0147,0.0147,0.0151,0.0154,0.0156,0.014,0.0142,0.0143,0.0123,0.0123,0.0123,0,0,0.0135,0.0141,0.0153,0.016,0.0168,0.0171,0.0175,0.0178,0.0182,0.0189,0.018,0.0177,0.0174,0.0171,0.0168,0.0181,0.016,0.0178,0.0199,0.0184,0.0185,0.0186,0.0165,0.0164,0.018,0.018,0.018,0,0.0133,0.0152,0.0155,0.0169,0.0179,0.0177,0.0192,0.0196,0.0199,0.0204,0.0197,0.0194,0.0185,0.0192,0.0196,0.0188,0.0172,0.019,0.0188,0.0188,0.0189,0.0166,0.0165,0.0182,0.0182,0.0181,0.0181,0,0.015,0.0166,0.0173,0.0195,0.0204,0.0215,0.0225,0.0233,0.0235,0.0237,0.0244,0.0231,0.0229,0.0225,0.0215,0.0217,0.0201,0.0193,0.0182,0.0193,0.0168,0.0166,0.0184,0.0184,0.0183,0.0183,0,0,0.0148,0.018,0.0184,0.0201,0.022,0.023,0.025,0.0267,0.0281,0.0279,0.0294,0.0286,0.0275,0.0271,0.0256,0.0244,0.023,0.0222,0.022,0.0204,0.0191,0.0181,0.0178,0.0221,0.0221,0.0221,0.0171,0,0.0162,0.0194,0.0208,0.024,0.0258,0.0268,0.0289,0.0303,0.0309,0.0322,0.0311,0.0319,0.0294,0.0296,0.0278,0.0246,0.0226,0.0244,0.0179,0.0177,0.0171,0.0176,0.022,0.0169,0.0168,0.0168,0.0168,0,0.0177,0.0199,0.0233,0.027,0.028,0.0299,0.0332,0.0351,0.0366,0.037,0.0371,0.0361,0.0351,0.0326,0.0274,0.0286,0.024,0.021,0.0207,0.0186,0.0164,0.0155,0.0163,0.0163,0.0164,0.0164,0.0164,0,0.0178,0.0218,0.0247,0.026,0.03,0.0319,0.0343,0.0365,0.039,0.0404,0.0421,0.0398,0.0398,0.0341,0.0279,0.0275,0.0215,0.02,0.0146,0.0145,0.0152,0.0152,0.0156,0.0156,0.0157,0.0157,0.0157,0,0.019,0.0214,0.0252,0.027,0.0311,0.0333,0.0376,0.0395,0.0426,0.0463,0.0448,0.0464,0.0402,0.0363,0.0292,0.0215,0.0222,0.0151,0.0134,0.0167,0.0169,0.015,0.015,0.0155,0.0155,0.0156,0.0156,0,0.0188,0.0212,0.025,0.0295,0.0314,0.0345,0.0407,0.0439,0.0465,0.0512,0.0523,0.0516,0.0474,0.04,0.0311,0.0241,0.0162,0.0129,0.0171,0.0156,0.0095,0.0097,0.0064,0.0063,0.0062,0.0062,0.0062,0,0.0191,0.0209,0.0266,0.0296,0.032,0.0371,0.0412,0.0454,0.0493,0.0544,0.0569,0.0551,0.0533,0.0406,0.0316,0.0182,0.0157,0.0101,0.0096,0.01,0.0086,0.009,0.0093,0.0061,0.006,0.006,0.006,0,0.0195,0.0215,0.0248,0.0307,0.0356,0.0411,0.0472,0.0504,0.0562,0.0584,0.0611,0.056,0.0513,0.0413,0.0313,0.0212,0.013,0.0095,0.0095,0.009,0.0096,0.0084,0.0087,0.0058,0.0058,0.0059,0.0059,0,0.0201,0.0221,0.0266,0.0321,0.0381,0.0443,0.0474,0.0529,0.0571,0.0627,0.0629,0.0588,0.0565,0.0428,0.0333,0.0239,0.0207,0.0151,0.0148,0.0149,0.0187,0.0208,0.0192,0,0,0,0,0,0.0208,0.0234,0.028,0.0343,0.0402,0.044,0.0515,0.0545,0.0598,0.0621,0.063,0.0589,0.0474,0.0427,0.0333,0.0305,0.0178,0.0186,0.0109,0.0047,0.0049,0.0078,0,0,0,0,0,0,0.0214,0.0254,0.0277,0.0352,0.0396,0.0466,0.0516,0.0554,0.0568,0.0605,0.0552,0.0538,0.043,0.053,0.0323,0.0297,0.0226,0.014,0.0137,0.0046,0.0048,0.005,0.008,0,0,0,0,0]}]]